Regional Weather Roundup
Issued by NWS Midland/Odessa, TX

Skip options and go directly to product.
Home | Oldest Version | Previous Version | Current Version | All | Graphics & Text | Save Text | Print | Product List | Glossary On

Skip product version selection by date and time.   
828
ASUS44 KMAF 190810
RWRMAF
MIDLAND AREA WEATHER ROUNDUP
NATIONAL WEATHER SERVICE MIDLAND TX
200 AM CST FRI DEC 19 2014

...IN SOUTHWEST TEXAS AND SOUTHEAST NEW MEXICO...

CITY           SKY/WX    TMP DP  RH WIND       PRES   REMARKS
ALPINE         CLEAR     34  29  81 CALM      30.18S
ANDREWS        LGT RAIN  40  38  94 E9        30.12F WCI  34
ARTESIA        CLEAR     41  39  93 CALM      30.10F
BIG SPRING     CLOUDY    42  38  83 N8        30.16R WCI  38
CARLSBAD       PTCLDY    47  36  65 W10       30.08F
DRYDEN           N/A     54  39  57 N6        30.04F
FORT STOCKTON  PTCLDY    43  31  62 W8        30.09S WCI  38
GUAD PASS      NOT AVBL
HOBBS          MOCLDY    41  39  93 E5        30.11F WCI  38
MARFA          CLEAR     32  25  74 N5        30.14F WCI  27
MIDLAND AIRPK  MOCLDY    42  38  83 N8        30.14F WCI  38
MIDLAND INTL   MOCLDY    42  37  82 N14       30.12S WCI  35
ODESSA         MOCLDY    43  38  82 NE15      30.13F WCI  36
PECOS          PTCLDY    44  33  64 NW6       30.10R
PRESIDIO       FAIR      47  33  59 N5        30.09S
SEMINOLE       MOCLDY    38  35  89 E8        30.12F WCI  32
SNYDER         CLOUDY    39  36  88 NE13      30.13F WCI  32
WINK           CLOUDY    51  40  65 SW5       30.07F
$$
...OTHER STATIONS IN TEXAS...

CITY           SKY/WX    TMP DP  RH WIND       PRES   REMARKS
ABILENE        LGT RAIN  43  40  89 N9        30.12F WCI  38
AMARILLO       CLOUDY    36  34  92 S7        30.14F WCI  30
AUSTIN         TSTM      50  50 100 N8        30.06F FOG
BROWNSVILLE    CLOUDY    70  67  90 S6        29.97R
CORPUS CHRISTI MOCLDY    68  67  96 S9        29.95F
DALLAS FTW     CLOUDY    46  42  86 NE9       30.15S
DEL RIO        CLOUDY    61  56  83 CALM      30.01S
EL PASO        MOCLDY    43  39  86 CALM      30.13S
HOUSTON INT    TSTM      57  57 100 NE10      30.01F FOG
LUBBOCK        LGT RAIN  39  37  92 SE9       30.12F WCI  33
SAN ANGELO     CLOUDY    49  44  83 NE8       30.09F
SAN ANTONIO    LGT RAIN  54  51  90 N10       30.03F FOG
WACO           CLOUDY    48  45  89 N7        30.13R
WICHITA FALLS  NOT AVBL
$$
...OTHER LOCATIONS IN NEW MEXICO...

CITY           SKY/WX    TMP DP  RH WIND       PRES   REMARKS
ALAMAGORDO     CLOUDY    41  39  93 N3        30.14F
ALBUQUERQUE    CLEAR     35  27  72 NW9       30.15F WCI  28
CANNON AFB     NOT AVBL
CLOVIS         CLOUDY    36  32  87 E8        30.10S WCI  29
HOLLOMAN AFB   CLOUDY    40  40  99 N3        30.13F
ROSWELL        PTCLDY    39  33  79 W3        30.09F
RUIDOSO        MOCLDY    32  30  93 NW7       30.12F WCI  26
SANTA FE       PTCLDY    29  24  82 N9        30.11S WCI  20
TRUTH OR CONSE CLOUDY    39  37  92 CALM      30.14F
TUCUMCARI      CLOUDY    37  31  78 E7        30.08F WCI  32
$$

USA.gov is the U.S. government's official web portal to all federal, state and local government web resources and services.